Regional Weather Roundup
Issued by NWS

Home | Current Version | Previous Version | Text Only | Print | Product List | Glossary On
Versions: 1 2 3 4 5 6 7 8 9 10 11 12 13 14 15 16 17 18 19 20 21 22 23 24 25 26 27 28 29 30 31 32 33 34 35 36 37 38 39 40 41 42 43 44 45 46 47 48 49 50
182
ASUS43 KTOP 271208
RWRKS

WEATHER ROUNDUP FOR KANSAS
NATIONAL WEATHER SERVICE GOODLAND KS
600 AM CST MON FEB 27 2017

NOTE:  "FAIR" INDICATES FEW OR NO CLOUDS BELOW 12,000 FEET WITH NO
SIGNIFICANT WEATHER AND/OR OBSTRUCTIONS TO VISIBILITY.

KSZ001>006-013>018-027>032-041>047-271300-
NORTHWEST KANSAS

CITY           SKY/WX    TMP DP  RH WIND       PRES   REMARKS
GOODLAND       CLOUDY    25  21  85 S15       29.78F WCI  13
6HR MIN TEMP:  18; 6HR MAX TEMP:  26;

HAYS           CLEAR     23  16  74 CALM      29.91R
HILL CITY      CLEAR     24  16  71 SE3       29.89R
6HR MIN TEMP:  14; 6HR MAX TEMP:  25;

RUSSELL        CLEAR     27  21  78 SE7       29.89S
6HR MIN TEMP:  20; 6HR MAX TEMP:  29;

$$

KSZ061>065-074>080-084>089-271300-
SOUTHWEST KANSAS

CITY           SKY/WX    TMP DP  RH WIND       PRES   REMARKS
DODGE CITY     CLEAR     24  21  88 SE9       29.85F
6HR MIN TEMP:  23; 6HR MAX TEMP:  29;

ELKHART          N/A     23   9  55 SW10        N/A  WCI  12
GARDEN CITY    CLOUDY    24  20  84 SE9       29.82F
6HR MIN TEMP:  21; 6HR MAX TEMP:  29;

GREAT BEND     CLEAR     26  22  84 SE5       29.90S
LIBERAL        CLOUDY    25  16  68 S8        29.83R
PRATT          CLEAR     26  22  84 SE3       29.90S
6HR MIN TEMP:  26; 6HR MAX TEMP:  32;

$$

KSZ066>073-081>083-090>101-271300-
SOUTHEAST KANSAS

CITY           SKY/WX    TMP DP  RH WIND       PRES   REMARKS
CHANUTE        PTCLDY    25  23  92 E3        30.01R
6HR MIN TEMP:  22; 6HR MAX TEMP:  31;

COFFEYVILLE    CLEAR     29  28  96 NE5       30.01R
6HR MIN TEMP:  27; 6HR MAX TEMP:  34;

HUTCHINSON     CLEAR     30  26  85 E9        29.94S
6HR MIN TEMP:  30; 6HR MAX TEMP:  35;

MEDICINE LODGE   N/A     32  27  81 E5        29.91S
NEWTON         CLEAR     30  27  88 SE9       29.96R
PARSONS        CLEAR     33  30  88 E6        30.01R
6HR MIN TEMP:  31; 6HR MAX TEMP:  34;

WICHITA INTL   CLEAR     34  28  79 E10       29.95R WCI  26
6HR MIN TEMP:  29; 6HR MAX TEMP:  37;

WICHITA JABRA  CLEAR     29  27  92 CALM      29.96R
6HR MIN TEMP:  27; 6HR MAX TEMP:  34;

WICHITA MCCONL CLEAR     33  28  79 SE10      29.95R WCI  25
WINFIELD       CLEAR     36  29  75 E6        29.97R
6HR MIN TEMP:  35; 6HR MAX TEMP:  39;

$$

KSZ007>012-019>026-033>040-048>060-102>105-271300-
NORTHEAST KANSAS

CITY           SKY/WX    TMP DP  RH WIND       PRES   REMARKS
CONCORDIA      CLEAR     27  22  81 SE3       29.93R
6HR MIN TEMP:  22; 6HR MAX TEMP:  31;

EMPORIA        FOG       24  22  91 SE5       29.99S VSB 1/4
6HR MIN TEMP:  23; 6HR MAX TEMP:  31;

LAWRENCE       FOG       24  24 100 SE6       30.02F VSB 1/4
6HR MIN TEMP:  21; 6HR MAX TEMP:  33;

MANHATTAN      CLEAR     25  20  81 CALM      29.98R
6HR MIN TEMP:  20; 6HR MAX TEMP:  28;

MARYSVILLE     CLEAR     27  21  80 CALM      29.96S
OLATHE IND     FOG       29  28  96 E10       30.02S VSB 1/2 WCI  20
6HR MIN TEMP:  23; 6HR MAX TEMP:  31;

OLATHE EXE     FOG       26  26 100 E5        30.02S VSB 1/4
6HR MIN TEMP:  25; 6HR MAX TEMP:  32;

SALINA         CLEAR     24  19  81 S3        29.95S
6HR MIN TEMP:  23; 6HR MAX TEMP:  32;

TOPEKA BILLARD FOG       24  24 100 NE5       30.01R VSB 1/4
6HR MIN TEMP:  23; 6HR MAX TEMP:  35;

TOPEKA FORBES  FOG       26  23  88 SE5       30.00S VSB 1/4
6HR MIN TEMP:  23; 6HR MAX TEMP:  31;

$$




USA.gov is the U.S. government's official web portal to all federal, state and local government web resources and services.